Weather History for Baker, MT

Change the Weather History Date:

Sunday, March 3, 2013

  Actual Average Record
Temperature  
Mean Temperature 40 °F -  
Max Temperature 51 °F 25 °F 57 °F (2005)
Min Temperature 30 °F 2 °F -14 °F (2002)
Degree Days  
Heating Degree Days 24    
Moisture  
Dew Point 30 °F    
Average Humidity 77    
Maximum Humidity 100    
Minimum Humidity 46    
Precipitation  
Precipitation 0.18 in - - ()
Sea Level Pressure  
Sea Level Pressure 29.67 in    
Wind  
Wind Speed 12 mph (WNW)    
Max Wind Speed 29 mph    
Max Gust Speed 34 mph    
Visibility 6 miles    
Events Fog , Rain , Snow    
Averages and records for this station are not official NWS values.
T = Trace of Precipitation, MM = Missing Value Source: NWS Daily Summary

Daily Weather History Graph

Daily Weather History Graph

Search for Another Location

Airport:

Trip Planner

Search our weather history database for the weather conditions in past years. The results will help you decide how hot, cold, wet, or windy it might be!

Date:

Astronomy

Mar. 03, 2013 Rise Set
Actual Time 6:31 AM MST 5:46 PM MST
Civil Twilight 6:01 AM MST 6:16 PM MST
Nautical Twilight 5:27 AM MST 6:51 PM MST
Astronomical Twilight 4:52 AM MST 7:26 PM MST
Moon No Moon Rise 9:26 AM MST (3/3)
Length of Visible Light 12h 14m
Length of Day
11h 14m
Waning Gibbous, 63% of the Moon is Illuminated
Mar 3
Waning Gibbous
Mar 4
Last Quarter
Mar 11
New
Mar 19
First Quarter
Mar 27
Full

Hourly Weather History & Observations

Time (MST) Temp. Windchill Dew Point Humidity Pressure Visibility Wind Dir Wind Speed Gust Speed Precip Events Conditions
12:51 AM 35.1 °F 32.2 °F 28.0 °F 76% 29.83 in 10.0 mi ESE 3.5 mph - N/A   Overcast
1:51 AM 34.0 °F - 28.0 °F 79% 29.81 in 10.0 mi Calm Calm - N/A   Overcast
2:51 AM 35.1 °F 31.0 °F 28.0 °F 76% 29.79 in 10.0 mi North 4.6 mph - N/A   Overcast
3:51 AM 37.0 °F 34.5 °F 28.0 °F 70% 29.75 in 10.0 mi ENE 3.5 mph - N/A   Overcast
5:51 AM 42.1 °F 38.4 °F 30.0 °F 62% 29.72 in 10.0 mi SW 5.8 mph - N/A   Overcast
7:51 AM 37.9 °F - 30.9 °F 76% 29.73 in 10.0 mi Calm Calm - N/A   Overcast
8:51 AM 46.0 °F 41.9 °F 32.0 °F 58% 29.70 in 10.0 mi West 8.1 mph - N/A   Overcast
9:51 AM 50.0 °F - 30.9 °F 48% 29.68 in 10.0 mi WNW 4.6 mph - N/A   Mostly Cloudy
10:51 AM 51.1 °F - 30.9 °F 46% 29.67 in 10.0 mi WNW 9.2 mph - N/A   Overcast
11:51 AM 50.0 °F - 33.1 °F 52% 29.65 in 10.0 mi West 13.8 mph - 0.00 in Rain Light Rain
12:51 PM 51.1 °F - 34.0 °F 52% 29.61 in 10.0 mi SW 8.1 mph - 0.00 in   Mostly Cloudy
2:51 PM 51.1 °F - 33.1 °F 50% 29.57 in 10.0 mi West 13.8 mph - 0.00 in Rain Light Rain
6:30 PM 42.8 °F 34.0 °F 35.6 °F 76% 29.54 in 10.0 mi NW 20.7 mph 31.1 mph 0.00 in Rain Light Rain
6:38 PM 41.0 °F 31.6 °F 35.6 °F 81% 29.55 in 10.0 mi NW 20.7 mph 31.1 mph 0.00 in Rain Light Rain
6:43 PM 37.4 °F 26.9 °F 33.8 °F 87% 29.56 in 10.0 mi NW 20.7 mph 32.2 mph 0.01 in Rain Light Rain
6:51 PM 36.0 °F 25.0 °F 32.0 °F 86% 29.62 in 8.0 mi WNW 20.7 mph 29.9 mph 0.03 in Rain Light Rain
7:06 PM 33.8 °F 21.6 °F 28.4 °F 81% 29.59 in 2.0 mi WNW 23.0 mph 31.1 mph 0.05 in Snow Light Snow
7:13 PM 33.8 °F 21.9 °F 28.4 °F 81% 29.60 in 1.5 mi WNW 21.9 mph 31.1 mph 0.05 in Snow Light Snow
7:31 PM 33.8 °F 22.2 °F 28.4 °F 81% 29.63 in 0.8 mi WNW 20.7 mph 34.5 mph 0.06 in Snow Light Snow
7:37 PM 32.0 °F 17.9 °F 28.4 °F 87% 29.64 in 0.8 mi WNW 28.8 mph 34.5 mph 0.08 in Snow Light Snow
7:51 PM 32.0 °F 19.5 °F 28.9 °F 88% 29.71 in 0.5 mi WNW 21.9 mph 34.5 mph 0.08 in Fog , Snow Snow
7:57 PM 32.0 °F 18.9 °F 28.4 °F 87% 29.66 in 0.5 mi WNW 24.2 mph 31.1 mph 0.01 in Fog , Snow Snow
8:16 PM 32.0 °F 19.5 °F 28.4 °F 87% 29.66 in 0.5 mi WNW 21.9 mph - 0.03 in Fog , Snow Snow
8:51 PM 32.0 °F 20.8 °F 28.9 °F 88% 29.70 in 1.0 mi WNW 17.3 mph - 0.05 in Snow Light Snow
9:04 PM 32.0 °F 20.1 °F 28.4 °F 87% 29.66 in 0.8 mi WNW 19.6 mph - 0.01 in Snow Light Snow
9:33 PM 32.0 °F 21.2 °F - N/A% 29.65 in 1.0 mi WNW 16.1 mph - 0.02 in Snow Light Snow
9:45 PM 32.0 °F 20.5 °F - N/A% 29.66 in 2.5 mi WNW 18.4 mph - 0.02 in Snow Light Snow
9:51 PM 32.0 °F 20.5 °F - N/A% 29.69 in 3.0 mi WNW 18.4 mph - 0.02 in Snow Light Snow
9:56 PM 32.0 °F 20.5 °F - N/A% 29.66 in 2.5 mi WNW 18.4 mph - 0.00 in Snow Light Snow
10:15 PM 32.0 °F 20.1 °F - N/A% 29.66 in 3.0 mi WNW 19.6 mph - 0.00 in Snow Light Snow
10:23 PM 32.0 °F 20.5 °F - N/A% 29.66 in 6.0 mi WNW 18.4 mph - 0.00 in Snow Light Snow
10:29 PM 32.0 °F 19.8 °F - N/A% 29.66 in 9.0 mi WNW 20.7 mph - 0.00 in Snow Light Snow
10:51 PM 30.9 °F 18.7 °F 30.0 °F 96% 29.70 in 5.0 mi West 19.6 mph - 0.00 in Snow Light Snow
11:07 PM 30.2 °F 18.9 °F 30.2 °F 100% 29.67 in 8.0 mi WNW 16.1 mph 25.3 mph 0.00 in Snow Light Snow
11:26 PM 30.2 °F 18.1 °F 30.2 °F 100% 29.67 in 9.0 mi West 18.4 mph 25.3 mph 0.00 in   Overcast
11:40 PM 30.2 °F 18.5 °F 28.4 °F 93% 29.67 in 10.0 mi West 17.3 mph - 0.00 in   Overcast
11:51 PM 30.0 °F 17.5 °F 28.0 °F 92% 29.71 in 10.0 mi West 19.6 mph - 0.00 in   Overcast